STARLINK-33714, 63581

Orbit data source: Space-Track

STARLINK-33714, 63581 is a payload satellite owned by SpaceX/Seattle (US) in LEO that was launched on Mon, 14 Apr 2025 UTC via an FALCON 9 launch vehicle from the Air Force Eastern Test Range (AFETR). Payload-class satellites include a variety of spacecraft equipped with specific instruments for various scientific and technological missions. These include communications satellites like Starlink; space stations such as the ISS; scientific satellites like the Hubble; Earth observation satellites from companies like Planet Labs, Umbra, and HawkEye 360; GPS; miniature CubeSats for education and research; and military/defense satellites.

Loading next visibility...
Identifier
63581, 2025-076N
Orbit
LEO
Country
Flag of USUS
Related business
Manufacturer
SpaceX/Seattle
Mission
Operational Commercial Communications
Bus & Motor
STARLINK V2MO, Unknown motor
Mass
575 kg wet, ~530 kg dry
Launch date (UTC)
2025-04-14 (1 year ago)
Launch vehicle
FALCON 9
Launch site
Air Force Eastern Test Range (AFETR)
Object type
Payload
Rocket body
Debris
Shape & HBR
Box + 2 Pan, 17.7 m
Radar Cross Section
36.964 m², Large (>1 m²)

Expand to show TLE details & history
Last TLE update: 9 hours ago

TLE from 9 hours ago
0 STARLINK-33714
1 63581U 25076N   26145.00366418  .00009388  00000-0  35020-3 0  9990
2 63581  43.0041 250.5408 0001236 277.4597  82.6114 15.27583816 63506
Epoch: 2026-05-25T00:05Z
TLE epoch observation values (Epoch: 2026-05-25T00:05:16.585Z)
Latitude
-0.00002°
Longitude
6.62398°
Altitude
482.705 km
Speed
7.626 km/s
True Right ascension
16h 42m 09s
True Declination
0° 00' 00"
Sunlit
Object was in full shadow at epoch
Visualization orbit readout
Latitude
Unknown
Longitude
Unknown
Altitude
Unknown
Speed
Unknown
Apparent Right ascension
Unknown
Apparent Declination
Unknown
Sunlit
N/A
Visualization observer readout
Local Sidereal Time
18:36:45
Azimuth
Unknown
Elevation
Unknown
Doppler factor
Unknown
Orbital elements
Apogee altitude
485.83 km
Perigee altitude
484.134 km
Semi-major axis
6,863.119 km
Eccentricity
0.00012
Inclination
43.0041°
RAAN
250.5408°
Arg. of periapsis
277.4597°
True anomaly
82.62545°
Mean anomaly
82.6114°
Eccentric anomaly
82.61842°
Mean motion
3.81734 °/min
Orbital period
94.31 mins
BSTAR
0.0003502
Loading maneuver chart data...
Computing Atmospheric mass density...
Loading historical data...
Loading historical data...
Loading historical data...
Loading historical data...
Loading historical data...
Loading historical data...
Loading historical data...

Documentation

Showing up to 5 results
|